Regional Weather Roundup
Issued by NWS Portland, ME

Home | Current Version | Previous Version | Text Only | Print | Product List | Glossary On
Versions: 1 2 3 4 5 6 7 8 9 10 11 12 13 14 15 16 17 18 19 20 21 22 23 24 25 26 27 28 29 30 31 32 33 34 35 36 37 38 39 40 41 42 43 44 45 46 47 48 49 50
577
ASUS41 KGYX 080710
RWRGYX
WEATHER ROUNDUP FOR MAINE AND NEW HAMPSHIRE
NATIONAL WEATHER SERVICE GRAY ME
200 AM EST THU DEC 08 2016

MEZ002-005-006-010-012-015-018-020-021-024-026-027-029-080800-
MAINE

CITY           SKY/WX    TMP DP  RH WIND       PRES   REMARKS
PORTLAND       MOCLDY    29  29 100 CALM      29.93F FOG
SANFORD        CLOUDY    31  31 100 CALM      29.93S
BAR HARBOR     CLOUDY    28  27  96 SW5       29.93S
WISCASSET      CLOUDY    31  29  92 CALM      29.95S
ROCKLAND       CLOUDY    30  30 100 W8        29.93R FOG
FRYEBURG       MOCLDY    26  25  96 CALM      29.91S
LEWISTONAUBURN CLOUDY    30  28  92 CALM      29.92F FOG
AUGUSTA        CLOUDY    31  31 100 CALM      29.92S FOG
WATERVILLE     FOG       30  29  96 S3        29.90R VSB 1
BANGOR         FOG       30  30 100 CALM      29.92S VSB 1/2
GREENVILLE       N/A     28  28 100 CALM      29.81F
MILLINOCKET    CLOUDY    27  26  96 CALM      29.89F
HOULTON        CLOUDY    27  26  96 SW5       29.86F
PRESQUE ISLE   CLOUDY    23  21  92 CALM      29.85F
FRENCHVILLE    MOCLDY    24  20  84 S6        29.79F
CARIBOU        CLOUDY    23  20  88 CALM      29.83S
$$

NHZ002-005-008-009-011-012-014-080800-
NEW HAMPSHIRE

CITY           SKY/WX    TMP DP  RH WIND       PRES   REMARKS
PORTSMOUTH     MOCLDY    32  31  95 SW5       29.93F FOG
ROCHESTER      CLOUDY    33  30  88 CALM      29.93S
NASHUA         CLOUDY    30  30 100 CALM      29.96S FOG
MANCHESTER     CLOUDY    32  29  88 CALM      29.94S FOG
CONCORD        FOG       32  29  88 CALM      29.94F VSB 1/4
LACONIA        CLOUDY    33  32  96 W7        29.93S
PLYMOUTH       FOG       29  29 100 CALM      29.94R VSB 3/4
BERLIN         CLOUDY    28  25  88 CALM      29.89R FOG
WHITEFIELD     CLOUDY    28  25  88 CALM      29.91R
JAFFREY        MOCLDY    30  27  88 CALM      29.93F
KEENE          FOG       28  28 100 CALM      29.97R VSB 3/4
LEBANON        FOG       30  30 100 CALM      29.94R VSB 1/2
MT WASHINGTON  FOG       12  12 100 W36         N/A  VSB 0   WCI -11
$$

VTZ005-007-008-080800-
VERMONT

CITY           SKY/WX    TMP DP  RH WIND       PRES   REMARKS
ST JOHNSBURY     N/A     30  29  96 MISG      29.90S
MONTPELIER     MOCLDY    30  26  85 SW3       29.92F
BURLINGTON     CLOUDY    36  28  73 S7        29.91F
$$

MAZ007-012-024-CTZ003-RIZ002-NYZ038-NYZ072-080800-
SOUTHERN NEW ENGLAND AND NY

CITY           SKY/WX    TMP DP  RH WIND       PRES   REMARKS
BOSTON         CLOUDY    37  34  89 W7        29.97F
WORCESTER      PTCLDY    33  30  88 W8        29.93F
NANTUCKET      CLOUDY    41  38  89 W5        29.98R
PROVIDENCE     CLOUDY    37  34  89 W3        29.98F
HARTFORD       CLOUDY    32  31  96 CALM      29.98S
ALBANY         FOG       34  33  96 CALM      29.98S VSB 1/8
NEW YORK CITY  PTCLDY    44  31  60 W6        29.99F
$$

ANZ081-ANZ082-ANZ150-NHZ014-MEZ023>029-080800-
COASTAL MARINE OBSERVATIONS

STATION/POSITION TIME  TEMP    WIND        PRES    WAVE
                       AIR SEA DIR/SP/G            HT/PER
                 (UTC) (F)     (DEG/KT/KT) (MB)    (FT/S)
JEFFREYS LEDGE   0638      51                N/A     3/ 8
$$

.............KEY..............
   WCI - WIND CHILL
   TC  - TEMPERATURE IN CELSIUS
   VSB - VISIBILITY IN MILES
   HX  - HEAT INDEX
   FAIR- INDICATES FEW OR NO CLOUDS BELOW 12,000 FT, WITH NO
         SIGNIFICANT WEATHER AND/OR OBSTRUCTIONS TO VISIBILITY.






USA.gov is the U.S. government's official web portal to all federal, state and local government web resources and services.